Wind_Speed
18 18 19 17 17 20 22 22 23 23 19 17 16 13 11 10 9 10 10 10 10 11 12 11 10 11 11 12 13 13 13 13 14 14 14 13 13 13 13 12 10 9
17 19 21 19 16 20 24 24 23 23 20 18 17 15 12 11 10 11 11 11 12 13 12 11 11 11 12 12 13 13 13 14 14 13 13 13 13 13 11 10 10 9
16 18 22 18 16 21 25 24 22 22 21 20 19 17 14 12 13 13 13 13 13 13 12 11 11 11 12 12 13 13 13 14 13 12 12 12 11 10 9 9 9 9
17 18 20 17 18 21 23 24 24 22 21 20 19 17 14 14 15 15 14 13 13 13 12 11 12 12 12 13 13 13 13 13 12 11 12 11 10 9 9 9 9 9
20 19 18 18 19 20 21 24 25 23 22 20 17 15 14 15 15 15 14 13 13 12 12 12 12 12 12 13 13 13 13 12 11 11 11 10 9 9 8 8 8 7
21 19 18 18 19 20 21 24 25 24 22 19 16 13 13 14 14 14 14 13 13 12 12 12 12 12 12 13 13 12 12 12 11 11 11 10 9 8 8 8 8 7
20 20 19 19 20 22 24 25 26 24 20 17 14 13 13 14 14 14 14 14 13 13 12 13 13 13 13 12 12 12 12 12 11 11 10 10 9 9 8 8 8 8
21 21 20 20 22 25 27 28 27 24 19 15 14 13 13 14 15 14 14 14 13 13 13 13 13 13 12 12 12 12 12 11 11 10 10 9 9 8 8 7 8 8
22 21 21 21 23 27 29 28 26 23 19 15 13 13 14 14 15 15 14 14 13 13 13 13 13 13 12 12 13 12 12 11 11 10 10 9 9 9 8 8 7 7
22 22 23 23 26 29 30 29 26 22 18 14 13 14 15 15 15 15 14 14 14 13 13 13 13 13 13 13 12 12 12 11 11 10 9 9 9 8 8 7 7 7
23 23 24 27 30 31 31 30 26 21 16 14 14 15 15 16 16 15 14 14 14 14 14 13 13 13 13 13 12 12 12 11 11 10 9 9 8 8 8 7 7 7
24 23 24 29 32 32 32 30 26 20 16 14 15 16 16 16 16 15 14 14 14 14 14 14 14 14 13 13 13 12 12 11 11 10 9 9 8 8 8 7 7 7
25 24 23 28 33 33 32 30 25 19 15 15 16 16 16 16 16 15 15 15 15 14 14 14 14 14 13 13 13 13 12 11 11 10 10 9 8 8 7 7 7 7
25 23 23 29 34 33 32 30 25 19 15 15 16 16 16 17 16 16 15 15 15 15 15 14 14 14 13 13 13 13 12 12 11 11 10 9 9 8 7 7 7 7
23 23 25 31 34 32 32 29 23 17 14 15 16 16 16 16 16 17 16 15 15 15 15 15 14 13 13 14 14 13 13 12 11 11 10 10 9 8 8 7 7 8
23 26 29 31 32 31 31 27 20 15 14 15 15 16 16 16 17 17 16 16 16 16 16 15 13 13 15 15 15 14 13 12 12 11 10 10 10 9 8 8 8 8
26 28 29 29 30 31 29 24 19 15 14 15 16 16 16 17 17 17 16 16 16 16 16 15 13 14 17 18 16 15 14 13 12 11 10 10 9 9 9 9 8 8
28 29 28 27 28 29 26 21 18 16 15 15 16 16 17 17 17 17 16 16 16 16 15 14 12 15 19 19 18 17 16 14 12 11 10 10 9 9 9 9 8 8
27 28 26 25 26 25 23 20 18 16 16 17 17 16 17 17 17 17 16 16 16 15 14 13 11 15 21 21 19 18 17 14 12 11 10 9 9 9 9 9 9 8
24 25 24 24 24 23 22 20 18 17 18 18 18 17 17 17 18 17 16 16 15 15 15 14 12 15 21 22 20 20 17 12 10 10 10 9 9 8 8 8 8 7
23 23 23 23 23 22 21 20 19 19 19 19 19 18 17 17 18 17 16 16 15 15 16 15 14 17 22 22 22 21 16 10 8 9 9 9 9 8 8 8 7 6
23 23 23 22 23 23 22 21 20 20 20 20 18 17 17 17 17 17 17 16 15 15 15 14 15 20 22 22 22 22 16 9 8 9 10 9 9 8 8 8 8 6
24 23 23 24 24 24 23 22 21 21 21 20 18 17 17 18 18 17 16 16 16 16 15 13 16 21 22 22 24 23 17 10 8 10 10 9 10 9 8 8 8 7
24 23 24 24 24 24 23 22 22 22 22 20 18 18 18 18 17 16 16 17 16 16 15 14 16 21 23 23 25 25 19 11 9 10 10 10 10 10 8 8 9 11
23 23 23 23 23 23 22 21 22 23 22 20 18 18 18 17 17 17 17 16 16 16 16 15 16 21 24 24 25 25 21 14 10 9 11 10 10 11 9 8 9 13
22 22 22 22 22 22 20 20 21 21 20 19 18 17 17 17 17 17 16 16 16 17 17 15 16 21 25 26 25 25 23 17 12 9 11 11 11 11 11 10 9 12
Wind_Direction
174 174 171 163 163 167 167 166 164 160 153 144 139 136 139 139 139 144 142 139 130 116 111 109 107 110 107 103 101 98 97 94 91 89 87 86 82 78 75 72 72 72
172 175 172 162 160 166 165 165 164 160 155 149 144 141 142 143 144 147 146 138 127 117 116 115 113 114 110 106 104 102 101 98 95 93 90 88 83 79 78 76 74 73
166 170 169 162 158 162 163 166 166 161 159 154 148 142 140 144 147 147 145 136 125 121 121 119 118 117 113 111 109 106 104 101 100 99 93 88 85 85 84 81 76 73
166 167 166 160 157 159 163 170 168 162 159 156 150 143 141 145 147 144 141 134 127 126 126 123 121 119 116 115 113 110 107 105 105 102 96 93 92 93 91 87 83 78
170 165 161 158 158 158 161 166 163 158 158 154 147 143 143 144 144 142 139 135 133 130 128 125 123 122 121 119 115 114 112 110 109 105 103 103 101 100 98 95 92 87
168 163 159 157 158 156 155 157 157 156 155 150 143 142 147 147 146 144 141 139 137 134 132 130 128 128 126 122 119 118 117 116 114 113 112 110 110 108 106 105 100 94
164 161 157 155 155 155 155 156 155 153 149 144 143 146 151 151 147 144 143 141 139 138 136 135 134 133 129 126 124 123 122 121 120 121 119 118 119 116 112 110 105 98
160 159 158 155 156 158 159 158 155 151 146 144 146 149 153 153 148 145 145 143 142 141 139 139 138 134 131 130 129 127 125 125 126 126 125 125 126 122 116 113 107 100
159 159 160 157 158 161 160 158 156 151 145 143 147 151 154 153 149 147 147 145 144 142 141 142 138 134 134 134 133 132 130 128 129 129 131 132 130 127 124 118 110 104
160 159 159 157 158 160 159 157 155 151 145 146 152 154 154 152 150 149 148 146 145 144 144 143 140 137 138 137 136 136 134 132 133 134 136 136 133 130 126 121 115 108
162 160 159 159 160 160 159 157 154 150 148 152 155 154 154 153 152 151 150 148 147 147 146 145 143 142 141 141 140 138 137 137 137 139 139 135 132 129 125 121 117 108
163 159 158 160 161 161 161 159 155 149 150 154 156 156 156 155 155 154 153 152 151 150 149 147 146 145 145 144 143 141 141 140 139 140 138 136 133 129 125 123 117 108
162 159 157 161 164 163 162 161 156 150 151 156 157 158 158 158 157 156 156 155 153 152 151 150 149 149 149 147 146 145 144 143 143 142 140 139 137 132 128 127 119 110
160 159 157 162 166 165 163 161 156 152 155 158 159 160 162 162 159 158 157 155 154 153 151 152 153 154 154 152 150 149 148 148 147 146 144 143 139 136 134 130 122 109
157 158 158 163 166 165 163 161 155 153 158 160 162 164 165 164 161 160 159 156 155 154 153 154 155 157 159 159 156 153 152 152 150 149 149 147 145 144 142 137 127 114
155 158 161 164 165 164 164 161 154 155 162 164 166 167 167 165 163 162 162 160 159 157 156 157 159 163 166 163 159 156 154 153 152 153 154 153 154 152 149 144 134 124
157 159 163 164 164 165 164 160 156 160 167 169 169 170 169 166 165 165 164 163 163 160 159 159 162 171 171 165 160 157 154 152 154 156 157 159 160 159 157 153 144 138
160 160 162 163 164 166 164 160 163 168 174 176 173 171 170 168 168 168 166 166 164 162 162 162 166 178 177 169 163 159 154 152 156 158 161 165 167 166 165 159 152 150
164 164 163 163 164 166 164 163 171 179 182 183 177 173 171 170 171 170 168 167 166 163 163 161 168 181 181 175 168 161 156 153 154 160 165 170 173 171 169 163 158 159
163 165 165 166 166 166 166 171 182 187 185 183 181 177 173 172 173 172 169 169 167 164 164 166 173 183 184 181 172 164 161 155 153 162 166 167 172 172 169 167 164 168
163 164 165 167 168 169 174 183 190 189 184 183 182 179 174 173 175 173 171 170 168 164 165 173 183 184 184 183 175 169 167 157 151 163 163 163 172 172 168 168 168 171
168 169 170 173 175 178 185 190 190 187 185 184 182 177 174 175 175 173 171 169 168 167 166 173 183 183 181 181 176 172 170 162 161 170 166 166 175 175 169 170 170 173
174 177 179 182 184 186 190 189 186 185 185 184 180 175 173 174 172 171 172 171 170 170 169 172 182 186 184 181 178 174 172 175 180 177 172 173 178 180 176 173 177 182
180 183 185 185 185 188 189 185 183 185 185 182 178 173 170 170 169 170 175 177 176 175 176 177 183 190 190 184 180 177 177 190 198 182 178 181 180 184 183 179 191 193
182 185 185 182 181 184 185 183 182 183 182 178 176 175 171 169 171 175 179 181 181 182 185 184 184 192 193 186 183 183 186 200 212 191 183 187 185 188 188 178 190 195
180 181 180 177 176 177 176 174 173 172 171 170 172 173 172 172 175 178 180 183 185 187 191 190 187 191 194 190 188 190 192 202 217 206 190 191 191 191 191 181 177 187
Height
803 805 807 809 812 814 816 818 820 822 824 825 826 829 832 833 834 835 836 837 838 838 838 839 840 842 842 842 843 843 844 844 845 846 847 848 848 848 849 850 850 851
803 805 807 809 811 814 816 818 821 822 823 825 827 829 832 833 834 835 837 837 838 838 839 840 841 842 843 843 843 844 845 846 847 848 849 849 849 850 851 852 852 852
802 805 807 809 811 814 816 819 822 823 823 826 827 829 831 833 834 835 837 837 838 839 840 841 842 843 843 844 844 845 846 847 848 849 850 850 851 852 853 853 854 854
802 805 807 809 811 814 816 819 822 822 824 827 828 829 831 832 834 835 837 838 838 839 841 842 842 843 844 844 845 846 847 848 850 850 851 852 853 854 854 855 855 855
802 805 807 809 812 814 817 819 821 822 825 827 828 829 831 832 833 835 836 838 839 840 841 842 843 843 844 845 846 847 848 849 850 851 852 853 854 855 856 856 856 856
803 805 807 810 811 814 816 818 821 822 825 827 828 830 831 832 834 835 836 838 839 840 841 842 843 844 845 846 847 848 849 850 851 852 853 855 856 856 856 857 857 857
803 805 807 810 812 814 815 817 820 822 825 827 828 830 831 832 834 834 836 838 839 840 841 842 844 844 845 846 847 849 850 851 852 853 855 856 857 857 857 857 857 858
803 805 807 809 811 812 814 817 820 822 825 826 828 829 831 832 833 834 836 837 839 840 842 843 844 844 845 847 848 849 850 851 853 854 856 856 857 858 858 858 858 858
802 804 807 809 810 812 813 816 819 822 824 826 827 829 830 832 833 834 836 837 839 840 841 843 844 844 846 847 849 850 851 852 853 855 856 857 858 858 858 858 858 858
802 803 806 808 809 811 813 816 819 821 823 825 827 828 829 831 832 834 836 837 838 840 841 843 843 844 846 847 849 850 851 853 854 856 857 857 858 858 859 859 859 859
801 803 805 806 807 810 812 815 818 820 822 824 826 827 829 831 832 833 835 836 838 839 841 842 843 844 846 848 849 850 852 853 855 856 857 858 858 859 859 859 859 859
799 801 803 804 806 809 812 814 817 819 821 823 825 827 828 830 831 833 834 836 837 839 840 842 843 845 846 847 849 850 852 853 855 856 857 858 859 859 859 860 860 860
798 800 802 803 805 808 811 813 816 818 821 823 824 826 828 829 830 832 834 835 837 838 840 842 843 845 846 847 849 850 852 853 855 856 857 858 859 859 860 860 860 860
797 799 801 802 804 807 810 813 815 818 820 822 824 825 827 828 830 831 833 835 837 838 840 841 843 845 846 847 848 850 851 853 855 856 857 858 859 859 860 861 861 860
795 797 799 801 804 807 810 812 815 818 820 822 823 825 826 828 829 831 833 834 836 838 839 841 843 844 846 847 848 850 851 853 854 856 857 858 859 859 860 861 861 860
793 795 797 800 804 807 810 812 815 818 820 821 823 824 826 827 829 831 832 834 836 837 839 841 842 844 845 846 848 849 851 852 854 855 856 858 858 859 860 861 861 860
791 794 797 800 804 807 809 812 815 817 819 821 822 824 825 827 829 830 832 834 835 837 838 840 842 843 844 846 847 849 850 852 853 855 856 857 858 859 860 860 860 860
790 794 797 800 803 806 809 811 814 817 819 821 822 823 825 826 828 830 832 834 835 837 838 840 841 842 845 847 848 849 850 851 853 854 855 857 858 858 859 859 859 860
791 794 797 800 802 806 808 811 814 816 818 820 821 823 825 826 828 830 832 833 835 836 838 840 841 842 845 847 848 849 850 851 852 853 855 856 857 858 858 858 859 859
790 793 796 799 802 805 807 810 813 815 816 819 821 823 824 826 828 829 831 833 834 836 837 839 841 842 845 847 849 850 851 851 852 853 854 855 857 857 858 858 858 859
790 792 795 798 801 804 806 809 811 813 815 818 820 822 823 825 827 829 830 832 834 835 836 838 840 841 844 846 848 850 851 851 852 852 853 855 856 857 857 857 858 858
788 791 794 797 799 802 805 807 809 811 814 817 819 821 822 824 826 828 830 832 833 835 836 838 839 841 843 845 847 849 850 851 852 852 853 854 856 856 856 857 857 858
787 790 792 795 798 800 803 805 807 810 813 816 817 819 820 823 825 827 829 831 833 834 836 837 839 841 843 845 847 848 850 850 851 852 852 854 855 855 856 856 857 857
786 788 791 793 796 798 801 803 806 809 812 814 816 818 820 822 824 826 829 831 832 834 836 837 838 840 842 844 846 848 849 849 851 851 852 853 854 854 855 855 855 856
784 787 789 792 794 797 800 802 805 808 810 813 815 817 819 821 823 826 828 830 832 833 835 837 837 838 841 843 844 846 848 848 849 850 850 852 853 853 854 854 854 855
784 787 789 791 794 797 800 803 805 807 810 812 814 816 818 820 822 825 827 829 831 832 834 835 836 837 839 841 843 845 846 847 847 848 849 851 851 852 852 853 853 854